User: anonymous
Location: Niverville
(49.6028°N, 97.0419°W)
Time: 07:04:51
(UTC-05:00)
Language:

Cosmos 1154 Rocket - Orbit

View from above orbital plane
View from above orbital plane
View from above satellite
View from above satellite

Ground track
Ground track

The orbit data is extracted from the following two-line orbital elements,

1 11683U 80008B   14232.75576721  .00119040  39738-5  43222-3 0  4437
2 11683 081.1661 307.6305 0008468 175.0053 185.1301 15.88353250902522
Epoch (UTC): 20 August 2014 18:08:18
Eccentricity: 0.0008468
inclination: 81.1661°
perigee height: 301 km
apogee height: 312 km
right ascension of ascending node: 307.6305°
argument of perigee: 175.0053°
revolutions per day: 15.88353250
mean anomaly at epoch: 185.1301°
orbit number at epoch: 90252

The dashed part of the orbit path shows where the satellite is in the earth's shadow,  

DLR